This is the latest recevied weather packets stored in our database for station/object SQ5JP-4. If no packets are shown the sender has not sent any weather packets the latest 10 day(s).
| Time | Temp. | Humidity | Pressure | Rain* | Wind** | Luminosity | Snow |
|---|---|---|---|---|---|---|---|
| 1777738491 | 23.33° C | 39% | 1001.4 hPa | - | - | - | - |
| 1777737590 | 23.33° C | 40% | 1001.6 hPa | - | - | - | - |
| 1777736690 | 23.33° C | 41% | 1001.8 hPa | - | - | - | - |
| 1777735790 | 23.33° C | 40% | 1001.9 hPa | - | - | - | - |
| 1777734890 | 23.89° C | 38% | 1002.1 hPa | - | - | - | - |
| 1777733990 | 23.89° C | 37% | 1002.2 hPa | - | - | - | - |
| 1777733090 | 25° C | 35% | 1002.4 hPa | - | - | - | - |
| 1777732190 | 29.44° C | 36% | 1002.6 hPa | - | - | - | - |
| 1777730392 | 27.22° C | 33% | 1002.9 hPa | - | - | - | - |
| 1777729491 | 27.22° C | 34% | 1002.9 hPa | - | - | - | - |
| 1777728591 | 26.67° C | 36% | 1003.2 hPa | - | - | - | - |
| 1777727691 | 26.67° C | 39% | 1003.3 hPa | - | - | - | - |
| 1777726791 | 26.67° C | 37% | 1003.6 hPa | - | - | - | - |
| 1777725891 | 25° C | 38% | 1003.7 hPa | - | - | - | - |
| 1777724991 | 25° C | 39% | 1004 hPa | - | - | - | - |
| 1777724091 | 25° C | 41% | 1004.2 hPa | - | - | - | - |
| 1777723191 | 25° C | 42% | 1004.5 hPa | - | - | - | - |
| 1777722291 | 23.89° C | 43% | 1004.6 hPa | - | - | - | - |
| 1777721391 | 23.89° C | 44% | 1004.7 hPa | - | - | - | - |
| 1777720491 | 23.33° C | 46% | 1004.9 hPa | - | - | - | - |
| 1777719590 | 22.78° C | 43% | 1005.1 hPa | - | - | - | - |
| 1777718690 | 22.78° C | 45% | 1005.2 hPa | - | - | - | - |
| 1777717789 | 22.78° C | 46% | 1005.4 hPa | - | - | - | - |
| 1777716889 | 21.67° C | 47% | 1005.5 hPa | - | - | - | - |
| 1777715989 | 21.11° C | 48% | 1005.8 hPa | - | - | - | - |
* Rain since midnight (hover to see other rain measurements)
** Current wind speed in m/s (hover to see current wind gust speed)